Location: *
(48.8489°N, 2.3218°E)
Time: 23:10:02
(UTC+00:00)

ASTEX 1 - Pass Details

Date: 23 August 2019
Orbit: 719 x 745 km, 92.7° (Epoch: 20 September)

Event Time Altitude Azimuth Distance (km) Brightness Sun altitude
Rises 21:00:13 0° 1° (N) 3,180 7.4 -18.8°
Reaches altitude 10° 21:02:35 10° 357° (N) 2,249 6.6 -19.1°
Maximum altitude 21:07:23 51° 282° (WNW) 921 4.2 -19.6°
Drops below altitude 10° 21:12:07 10° 208° (SSW) 2,216 5.7 -20.1°
Enters shadow 21:12:33 - 206° (SSW) 2,383 5.8 -20.2°
